Time,TemperatureF,DewpointF,PressureIn,WindDirection,WindDirectionDegrees,WindSpeedMPH,WindSpeedGustMPH,Humidity,HourlyPrecipIn,Conditions,Clouds,dailyrainin,SoftwareType,DateUTC
2013-06-17 00:03:00,69.7,59.5,27.17,NNE,23,0.0,0.9,70,0.00,,,0.00,WSDL version 420,2013-06-17 04:03:00,
2013-06-17 00:08:00,69.5,59.3,27.17,NNE,23,0.0,0.0,70,0.00,,,0.00,WSDL version 420,2013-06-17 04:08:00,
2013-06-17 00:13:00,69.5,59.3,27.17,NNE,23,0.0,0.0,70,0.00,,,0.00,WSDL version 420,2013-06-17 04:13:00,
2013-06-17 00:18:00,69.5,59.3,27.17,NNE,23,0.0,0.0,70,0.00,,,0.00,WSDL version 420,2013-06-17 04:18:00,
2013-06-17 00:23:00,69.5,59.3,27.17,NNE,23,0.0,0.0,70,0.00,,,0.00,WSDL version 420,2013-06-17 04:23:00,
2013-06-17 00:28:00,69.4,59.2,27.17,NNE,23,0.0,0.0,70,0.00,,,0.00,WSDL version 420,2013-06-17 04:28:00,
2013-06-17 00:33:00,69.3,59.3,27.17,NNE,23,0.5,1.6,70,0.00,,,0.00,WSDL version 420,2013-06-17 04:33:00,
2013-06-17 00:38:00,69.2,59.4,27.17,NNE,23,0.0,1.6,71,0.00,,,0.00,WSDL version 420,2013-06-17 04:38:00,
2013-06-17 00:43:00,69.1,59.3,27.17,NNE,23,0.0,0.9,71,0.00,,,0.00,WSDL version 420,2013-06-17 04:43:00,
2013-06-17 00:48:00,69.0,59.2,27.17,NNE,23,0.0,0.9,71,0.00,,,0.00,WSDL version 420,2013-06-17 04:48:00,
2013-06-17 00:53:00,69.0,59.2,27.17,NNE,23,0.0,0.0,71,0.00,,,0.00,WSDL version 420,2013-06-17 04:53:00,
2013-06-17 00:58:00,69.0,59.3,27.17,NNE,23,0.0,0.0,72,0.00,,,0.00,WSDL version 420,2013-06-17 04:58:00,
2013-06-17 01:03:00,68.8,59.4,27.17,NNE,23,0.0,0.0,72,0.00,,,0.00,WSDL version 420,2013-06-17 05:03:00,
2013-06-17 01:08:00,68.7,59.3,27.17,NNE,23,0.0,0.0,72,0.00,,,0.00,WSDL version 420,2013-06-17 05:08:00,
2013-06-17 01:13:00,68.6,59.3,27.17,NNE,23,0.0,0.0,73,0.00,,,0.00,WSDL version 420,2013-06-17 05:13:00,
2013-06-17 01:18:00,68.5,59.3,27.17,NNE,23,0.0,0.0,72,0.00,,,0.00,WSDL version 420,2013-06-17 05:18:00,
2013-06-17 01:23:00,68.5,59.4,27.17,NNE,23,0.0,0.0,73,0.00,,,0.00,WSDL version 420,2013-06-17 05:23:00,
2013-06-17 01:28:00,68.4,59.6,27.17,NNE,23,0.0,0.0,74,0.00,,,0.00,WSDL version 420,2013-06-17 05:28:00,
2013-06-17 01:33:00,68.3,59.7,27.17,NNE,23,0.0,0.0,74,0.00,,,0.00,WSDL version 420,2013-06-17 05:33:00,
2013-06-17 01:38:00,68.3,59.7,27.17,NNE,23,0.0,0.0,74,0.00,,,0.00,WSDL version 420,2013-06-17 05:38:00,
2013-06-17 01:43:00,68.3,59.7,27.17,NNE,23,0.1,1.3,74,0.00,,,0.00,WSDL version 420,2013-06-17 05:43:00,
2013-06-17 01:48:00,68.3,59.7,27.17,NNE,23,0.0,1.3,74,0.00,,,0.00,WSDL version 420,2013-06-17 05:48:00,
2013-06-17 01:53:00,68.5,59.9,27.17,NNE,23,0.0,0.0,75,0.00,,,0.00,WSDL version 420,2013-06-17 05:53:00,
2013-06-17 01:58:00,68.4,60.0,27.17,NNE,23,0.0,0.0,74,0.00,,,0.00,WSDL version 420,2013-06-17 05:58:00,
2013-06-17 02:03:00,68.4,60.1,27.17,NNE,23,0.0,0.0,75,0.00,,,0.00,WSDL version 420,2013-06-17 06:03:00,
2013-06-17 02:08:00,68.3,60.0,27.17,NNE,23,0.0,0.0,75,0.00,,,0.00,WSDL version 420,2013-06-17 06:08:00,
2013-06-17 02:13:00,68.1,59.9,27.17,NNE,23,0.0,0.0,75,0.00,,,0.00,WSDL version 420,2013-06-17 06:13:00,
2013-06-17 02:18:00,68.2,60.0,27.17,NNE,23,0.0,3.8,75,0.00,,,0.00,WSDL version 420,2013-06-17 06:18:00,
2013-06-17 02:23:00,68.3,60.1,27.17,NNE,23,0.0,3.8,75,0.00,,,0.00,WSDL version 420,2013-06-17 06:23:00,
2013-06-17 02:28:00,68.3,60.1,27.17,NNE,23,0.0,1.3,75,0.00,,,0.00,WSDL version 420,2013-06-17 06:28:00,
2013-06-17 02:33:00,68.3,60.2,27.17,NNE,23,0.6,3.1,76,0.00,,,0.00,WSDL version 420,2013-06-17 06:33:00,
2013-06-17 02:40:00,68.3,60.4,27.17,NNE,23,0.4,3.1,75,0.00,,,0.00,WSDL version 420,2013-06-17 06:40:00,
2013-06-17 02:45:00,68.4,60.8,27.17,NNE,23,1.0,4.3,77,0.00,,,0.00,WSDL version 420,2013-06-17 06:45:00,
2013-06-17 02:50:00,68.6,61.0,27.17,NNE,23,1.4,4.3,77,0.00,,,0.00,WSDL version 420,2013-06-17 06:50:00,
2013-06-17 02:55:00,68.7,61.1,27.17,NNE,23,0.0,2.9,76,0.00,,,0.00,WSDL version 420,2013-06-17 06:55:00,
2013-06-17 03:00:00,68.8,61.3,27.17,NNE,23,2.2,3.8,77,0.00,,,0.00,WSDL version 420,2013-06-17 07:00:00,
2013-06-17 03:05:00,68.8,61.3,27.14,NNE,23,2.5,3.8,77,0.00,,,0.00,WSDL version 420,2013-06-17 07:05:00,
2013-06-17 03:10:00,68.8,61.3,27.14,NNE,23,0.3,3.8,77,0.00,,,0.00,WSDL version 420,2013-06-17 07:10:00,
2013-06-17 03:15:00,68.7,61.5,27.14,NNE,23,0.4,3.6,78,0.00,,,0.00,WSDL version 420,2013-06-17 07:15:00,
2013-06-17 03:20:00,68.6,61.5,27.14,NNE,23,0.6,2.9,78,0.00,,,0.00,WSDL version 420,2013-06-17 07:20:00,
2013-06-17 03:25:00,68.5,61.5,27.14,NNE,23,0.9,2.7,79,0.00,,,0.00,WSDL version 420,2013-06-17 07:25:00,
2013-06-17 03:30:00,68.3,61.6,27.14,NNE,23,0.0,2.5,79,0.00,,,0.00,WSDL version 420,2013-06-17 07:30:00,
2013-06-17 03:35:00,68.2,61.5,27.14,NNE,23,0.0,2.0,79,0.00,,,0.00,WSDL version 420,2013-06-17 07:35:00,
2013-06-17 03:40:00,68.1,61.3,27.14,NNE,23,0.0,1.3,79,0.00,,,0.00,WSDL version 420,2013-06-17 07:40:00,
2013-06-17 03:45:00,68.0,61.8,27.14,NNE,23,0.3,2.2,81,0.00,,,0.00,WSDL version 420,2013-06-17 07:45:00,
2013-06-17 03:50:00,67.9,61.9,27.14,NNE,23,0.0,2.2,81,0.00,,,0.00,WSDL version 420,2013-06-17 07:50:00,
2013-06-17 03:55:00,67.7,62.0,27.14,NNE,23,0.0,2.0,82,0.00,,,0.00,WSDL version 420,2013-06-17 07:55:00,
2013-06-17 04:00:00,67.7,62.1,27.14,NNE,23,0.0,0.9,82,0.00,,,0.00,WSDL version 420,2013-06-17 08:00:00,
2013-06-17 04:05:00,67.7,62.1,27.17,NNE,23,0.0,0.9,82,0.00,,,0.00,WSDL version 420,2013-06-17 08:05:00,
2013-06-17 04:10:00,67.6,62.0,27.17,NNE,23,0.0,0.0,82,0.00,,,0.00,WSDL version 420,2013-06-17 08:10:00,
2013-06-17 04:15:00,67.4,62.2,27.17,NNE,23,0.0,0.0,83,0.00,,,0.00,WSDL version 420,2013-06-17 08:15:00,
2013-06-17 04:20:00,67.4,62.3,27.17,NNE,23,0.0,0.0,84,0.00,,,0.00,WSDL version 420,2013-06-17 08:20:00,
2013-06-17 04:25:00,67.4,62.5,27.17,NNE,23,0.0,0.0,84,0.00,,,0.00,WSDL version 420,2013-06-17 08:25:00,
2013-06-17 04:30:00,67.4,62.5,27.17,NNE,23,0.0,1.6,84,0.00,,,0.00,WSDL version 420,2013-06-17 08:30:00,
2013-06-17 04:35:00,67.3,62.3,27.14,NNE,23,0.3,3.1,84,0.00,,,0.00,WSDL version 420,2013-06-17 08:35:00,
2013-06-17 04:40:00,67.4,62.5,27.14,NNE,23,0.2,3.1,84,0.00,,,0.00,WSDL version 420,2013-06-17 08:40:00,
2013-06-17 04:45:00,67.4,62.5,27.14,NNE,23,0.9,2.5,84,0.00,,,0.00,WSDL version 420,2013-06-17 08:45:00,
2013-06-17 04:50:00,67.4,62.7,27.14,NNE,23,0.5,3.1,86,0.00,,,0.00,WSDL version 420,2013-06-17 08:50:00,
2013-06-17 04:55:00,67.4,62.9,27.14,NNE,23,0.0,3.1,86,0.00,,,0.00,WSDL version 420,2013-06-17 08:55:00,
2013-06-17 05:00:00,67.4,62.9,27.14,NNE,23,0.9,2.9,86,0.00,,,0.00,WSDL version 420,2013-06-17 09:00:00,
2013-06-17 05:05:00,67.4,63.2,27.17,NNE,23,0.0,2.9,87,0.00,,,0.00,WSDL version 420,2013-06-17 09:05:00,
2013-06-17 05:10:00,67.4,63.3,27.17,NNE,23,0.3,1.3,87,0.00,,,0.00,WSDL version 420,2013-06-17 09:10:00,
2013-06-17 05:15:00,67.4,63.3,27.17,NNE,23,0.0,1.3,87,0.00,,,0.00,WSDL version 420,2013-06-17 09:15:00,
2013-06-17 05:20:00,67.3,63.2,27.14,NNE,23,0.0,0.0,87,0.00,,,0.00,WSDL version 420,2013-06-17 09:20:00,
2013-06-17 05:25:00,67.2,63.1,27.14,NNE,23,0.4,1.6,87,0.00,,,0.00,WSDL version 420,2013-06-17 09:25:00,
2013-06-17 05:30:00,67.2,63.1,27.14,NNE,23,0.0,2.0,87,0.00,,,0.00,WSDL version 420,2013-06-17 09:30:00,
2013-06-17 05:35:00,67.1,62.7,27.14,NNE,23,0.0,2.0,86,0.00,,,0.00,WSDL version 420,2013-06-17 09:35:00,
2013-06-17 05:40:00,66.9,62.5,27.14,NNE,23,0.0,0.0,86,0.00,,,0.00,WSDL version 420,2013-06-17 09:40:00,
2013-06-17 05:45:00,66.7,62.3,27.14,NNE,23,0.0,0.0,86,0.00,,,0.00,WSDL version 420,2013-06-17 09:45:00,
2013-06-17 05:50:00,66.5,62.1,27.14,NNE,23,0.0,0.0,86,0.00,,,0.00,WSDL version 420,2013-06-17 09:50:00,
2013-06-17 05:55:00,66.4,62.3,27.14,NNE,23,0.0,0.0,87,0.00,,,0.00,WSDL version 420,2013-06-17 09:55:00,
2013-06-17 06:00:00,66.3,62.2,27.14,NNE,23,0.0,0.0,87,0.00,,,0.00,WSDL version 420,2013-06-17 10:00:00,
2013-06-17 06:05:00,66.3,62.2,27.17,NNE,23,0.0,0.0,87,0.00,,,0.00,WSDL version 420,2013-06-17 10:05:00,
2013-06-17 06:10:00,66.1,62.4,27.17,NNE,23,0.0,0.0,88,0.00,,,0.00,WSDL version 420,2013-06-17 10:10:00,
2013-06-17 06:15:00,66.1,62.4,27.17,NNE,23,0.0,0.0,88,0.00,,,0.00,WSDL version 420,2013-06-17 10:15:00,
2013-06-17 06:20:00,66.0,62.3,27.14,NNE,23,0.0,0.0,88,0.00,,,0.00,WSDL version 420,2013-06-17 10:20:00,
2013-06-17 06:25:00,65.9,62.2,27.14,NNE,23,0.0,0.0,88,0.00,,,0.00,WSDL version 420,2013-06-17 10:25:00,
2013-06-17 06:30:00,65.9,62.1,27.14,NNE,23,0.0,0.0,88,0.00,,,0.00,WSDL version 420,2013-06-17 10:30:00,
2013-06-17 06:35:00,65.8,62.0,27.14,NNE,23,0.0,0.0,88,0.00,,,0.00,WSDL version 420,2013-06-17 10:35:00,
2013-06-17 06:40:00,65.6,61.9,27.14,NNE,23,0.0,0.0,88,0.00,,,0.00,WSDL version 420,2013-06-17 10:40:00,
2013-06-17 06:45:00,65.6,62.2,27.14,NNE,23,0.0,0.0,89,0.00,,,0.00,WSDL version 420,2013-06-17 10:45:00,
2013-06-17 06:50:00,65.6,62.2,27.14,NNE,23,0.0,0.0,89,0.00,,,0.00,WSDL version 420,2013-06-17 10:50:00,
2013-06-17 06:55:00,65.6,62.2,27.14,NNE,23,0.0,0.0,89,0.00,,,0.00,WSDL version 420,2013-06-17 10:55:00,
2013-06-17 07:00:00,65.6,62.2,27.14,NNE,23,0.0,0.0,89,0.00,,,0.00,WSDL version 420,2013-06-17 11:00:00,
2013-06-17 07:05:00,65.6,62.5,27.14,NNE,23,0.0,0.0,90,0.00,,,0.00,WSDL version 420,2013-06-17 11:05:00,
2013-06-17 07:10:00,65.7,62.7,27.14,NNE,23,0.0,0.0,90,0.00,,,0.00,WSDL version 420,2013-06-17 11:10:00,
2013-06-17 07:15:00,65.8,62.7,27.14,NNE,23,0.0,0.0,90,0.00,,,0.00,WSDL version 420,2013-06-17 11:15:00,
2013-06-17 07:20:00,65.9,62.9,27.14,NNE,23,0.4,1.6,90,0.00,,,0.00,WSDL version 420,2013-06-17 11:20:00,
2013-06-17 07:25:00,66.0,63.0,27.14,NNE,23,0.0,1.6,90,0.00,,,0.00,WSDL version 420,2013-06-17 11:25:00,
2013-06-17 07:30:00,66.1,63.1,27.14,NNE,23,0.0,0.0,90,0.00,,,0.00,WSDL version 420,2013-06-17 11:30:00,
2013-06-17 07:35:00,66.2,63.2,27.14,NNE,23,0.0,1.1,90,0.00,,,0.00,WSDL version 420,2013-06-17 11:35:00,
2013-06-17 07:40:00,66.4,63.3,27.14,NNE,23,0.4,1.3,90,0.00,,,0.00,WSDL version 420,2013-06-17 11:40:00,
2013-06-17 07:45:00,66.5,63.5,27.14,NNE,23,0.2,2.0,90,0.00,,,0.00,WSDL version 420,2013-06-17 11:45:00,
2013-06-17 07:50:00,66.8,63.9,27.14,NNE,23,0.0,2.0,91,0.00,,,0.00,WSDL version 420,2013-06-17 11:50:00,
2013-06-17 07:55:00,67.1,64.4,27.14,NNE,23,0.0,1.6,91,0.00,,,0.00,WSDL version 420,2013-06-17 11:55:00,
2013-06-17 08:00:00,67.4,64.7,27.14,NNE,23,0.0,2.5,91,0.00,,,0.00,WSDL version 420,2013-06-17 12:00:00,
2013-06-17 08:05:00,67.6,64.8,27.14,NNE,23,0.0,2.5,90,0.00,,,0.00,WSDL version 420,2013-06-17 12:05:00,
2013-06-17 08:10:00,67.7,64.6,27.14,NNE,23,0.0,0.0,90,0.00,,,0.00,WSDL version 420,2013-06-17 12:10:00,
2013-06-17 08:15:00,67.6,64.4,27.14,NNE,23,0.0,0.0,89,0.00,,,0.00,WSDL version 420,2013-06-17 12:15:00,
2013-06-17 08:20:00,67.6,64.2,27.14,NNE,23,0.0,2.2,89,0.00,,,0.00,WSDL version 420,2013-06-17 12:20:00,
2013-06-17 08:25:00,67.4,63.8,27.14,NNE,23,1.2,2.7,88,0.00,,,0.00,WSDL version 420,2013-06-17 12:25:00,
2013-06-17 08:30:00,67.4,63.6,27.14,NNE,23,0.0,2.7,88,0.00,,,0.00,WSDL version 420,2013-06-17 12:30:00,
2013-06-17 08:35:00,67.4,63.6,27.14,NNE,23,0.0,0.0,88,0.00,,,0.00,WSDL version 420,2013-06-17 12:35:00,
2013-06-17 08:40:00,67.4,63.7,27.14,NNE,23,0.0,2.0,88,0.00,,,0.00,WSDL version 420,2013-06-17 12:40:00,
2013-06-17 08:45:00,67.4,63.9,27.14,NNE,23,0.0,2.0,89,0.00,,,0.00,WSDL version 420,2013-06-17 12:45:00,
2013-06-17 08:50:00,67.5,64.1,27.14,NNE,23,0.0,0.9,89,0.00,,,0.00,WSDL version 420,2013-06-17 12:50:00,
2013-06-17 08:55:00,67.6,64.2,27.14,NNE,23,0.0,1.1,89,0.00,,,0.00,WSDL version 420,2013-06-17 12:55:00,
2013-06-17 09:00:00,67.7,64.3,27.14,NNE,23,0.4,2.5,89,0.00,,,0.00,WSDL version 420,2013-06-17 13:00:00,
2013-06-17 09:05:00,67.9,64.3,27.14,NNE,23,1.0,2.9,88,0.00,,,0.00,WSDL version 420,2013-06-17 13:05:00,
2013-06-17 09:10:00,68.0,64.3,27.14,NNE,23,0.3,2.9,88,0.00,,,0.00,WSDL version 420,2013-06-17 13:10:00,
2013-06-17 09:15:00,68.4,64.6,27.14,NNE,23,0.0,2.9,88,0.00,,,0.00,WSDL version 420,2013-06-17 13:15:00,
2013-06-17 09:20:00,68.8,64.8,27.14,NNE,23,0.0,2.2,87,0.00,,,0.00,WSDL version 420,2013-06-17 13:20:00,
2013-06-17 09:25:00,69.3,65.2,27.14,NNE,23,0.0,2.2,88,0.00,,,0.00,WSDL version 420,2013-06-17 13:25:00,
2013-06-17 09:30:00,69.5,65.1,27.14,NNE,23,0.4,2.9,84,0.00,,,0.00,WSDL version 420,2013-06-17 13:30:00,
2013-06-17 09:35:00,69.3,64.3,27.14,NNE,23,0.4,2.9,83,0.00,,,0.00,WSDL version 420,2013-06-17 13:35:00,
2013-06-17 09:40:00,69.2,64.1,27.14,NNE,23,0.0,2.5,83,0.00,,,0.00,WSDL version 420,2013-06-17 13:40:00,
2013-06-17 09:45:00,69.7,64.7,27.14,NNE,23,0.7,2.5,83,0.00,,,0.00,WSDL version 420,2013-06-17 13:45:00,
2013-06-17 09:50:00,70.5,65.3,27.14,NNE,23,0.0,2.5,83,0.00,,,0.00,WSDL version 420,2013-06-17 13:50:00,
2013-06-17 09:55:00,71.3,65.8,27.14,NNE,23,0.0,1.6,82,0.00,,,0.00,WSDL version 420,2013-06-17 13:55:00,
2013-06-17 10:00:00,72.0,65.9,27.14,NNE,23,1.0,2.7,80,0.00,,,0.00,WSDL version 420,2013-06-17 14:00:00,
2013-06-17 10:05:00,72.7,65.7,27.14,NNE,23,2.1,3.8,78,0.00,,,0.00,WSDL version 420,2013-06-17 14:05:00,
2013-06-17 10:10:00,73.3,66.0,27.14,NNE,23,1.5,3.8,77,0.00,,,0.00,WSDL version 420,2013-06-17 14:10:00,
2013-06-17 10:15:00,74.0,66.2,27.14,NNE,23,1.4,3.6,76,0.00,,,0.00,WSDL version 420,2013-06-17 14:15:00,
2013-06-17 10:20:00,73.7,64.5,27.14,NNE,23,0.1,3.6,72,0.00,,,0.00,WSDL version 420,2013-06-17 14:20:00,
2013-06-17 10:25:00,73.9,64.8,27.14,NNE,23,0.2,2.7,71,0.00,,,0.00,WSDL version 420,2013-06-17 14:25:00,
2013-06-17 10:30:00,74.1,64.2,27.14,NNE,23,1.0,3.4,71,0.00,,,0.00,WSDL version 420,2013-06-17 14:30:00,
2013-06-17 10:35:00,74.2,64.0,27.14,NNE,23,0.0,3.6,70,0.00,,,0.00,WSDL version 420,2013-06-17 14:35:00,
2013-06-17 10:40:00,74.0,64.0,27.14,NNE,23,1.5,3.6,70,0.00,,,0.00,WSDL version 420,2013-06-17 14:40:00,
2013-06-17 10:45:00,74.0,63.7,27.14,NNE,23,1.2,2.7,70,0.00,,,0.00,WSDL version 420,2013-06-17 14:45:00,
2013-06-17 10:50:00,74.0,63.6,27.14,NNE,23,0.3,2.2,70,0.00,,,0.00,WSDL version 420,2013-06-17 14:50:00,
2013-06-17 10:55:00,73.9,63.5,27.14,NNE,23,0.1,2.9,70,0.00,,,0.00,WSDL version 420,2013-06-17 14:55:00,
2013-06-17 11:00:00,73.9,63.4,27.14,NNE,23,0.0,2.9,69,0.00,,,0.00,WSDL version 420,2013-06-17 15:00:00,
2013-06-17 11:05:00,73.9,63.2,27.14,NNE,23,0.2,2.5,69,0.00,,,0.00,WSDL version 420,2013-06-17 15:05:00,
2013-06-17 11:10:00,73.9,63.5,27.14,NNE,23,0.0,2.5,70,0.00,,,0.00,WSDL version 420,2013-06-17 15:10:00,
2013-06-17 11:15:00,73.9,63.5,27.14,NNE,23,0.4,2.2,70,0.00,,,0.00,WSDL version 420,2013-06-17 15:15:00,
2013-06-17 11:20:00,73.7,63.1,27.14,NNE,23,1.0,2.2,69,0.00,,,0.00,WSDL version 420,2013-06-17 15:20:00,
2013-06-17 11:25:00,73.5,63.0,27.14,NNE,23,0.0,2.2,70,0.00,,,0.00,WSDL version 420,2013-06-17 15:25:00,
2013-06-17 11:30:00,73.5,62.7,27.14,NNE,23,0.2,2.5,69,0.00,,,0.00,WSDL version 420,2013-06-17 15:30:00,
2013-06-17 11:35:00,73.5,63.0,27.14,NNE,23,0.5,2.7,70,0.00,,,0.00,WSDL version 420,2013-06-17 15:35:00,
2013-06-17 11:40:00,73.5,62.8,27.14,NNE,23,0.0,2.7,70,0.00,,,0.00,WSDL version 420,2013-06-17 15:40:00,
2013-06-17 11:45:00,73.5,62.9,27.14,NNE,23,0.0,0.0,70,0.00,,,0.00,WSDL version 420,2013-06-17 15:45:00,
2013-06-17 11:50:00,73.5,63.1,27.17,NNE,23,0.7,2.5,70,0.00,,,0.00,WSDL version 420,2013-06-17 15:50:00,
2013-06-17 11:55:00,73.5,62.7,27.17,NNE,23,1.6,3.4,69,0.00,,,0.00,WSDL version 420,2013-06-17 15:55:00,
2013-06-17 12:00:00,73.7,62.6,27.17,NNE,23,0.9,3.4,68,0.00,,,0.00,WSDL version 420,2013-06-17 16:00:00,
2013-06-17 12:05:00,73.8,62.6,27.17,NNE,23,1.2,3.8,68,0.00,,,0.00,WSDL version 420,2013-06-17 16:05:00,
2013-06-17 12:10:00,73.5,62.3,27.17,NNE,23,1.5,3.8,69,0.00,,,0.00,WSDL version 420,2013-06-17 16:10:00,
2013-06-17 12:15:00,73.3,62.1,27.17,NNE,23,1.2,3.1,68,0.00,,,0.00,WSDL version 420,2013-06-17 16:15:00,
2013-06-17 12:20:00,73.4,62.2,27.14,NNE,23,0.2,3.1,68,0.00,,,0.00,WSDL version 420,2013-06-17 16:20:00,
2013-06-17 12:25:00,73.9,62.8,27.14,NNE,23,0.8,2.2,69,0.00,,,0.00,WSDL version 420,2013-06-17 16:25:00,
2013-06-17 12:30:00,74.4,63.1,27.14,NNE,23,1.8,4.0,67,0.00,,,0.00,WSDL version 420,2013-06-17 16:30:00,
2013-06-17 12:35:00,74.7,63.1,27.14,NNE,23,0.4,4.0,68,0.00,,,0.00,WSDL version 420,2013-06-17 16:35:00,
2013-06-17 12:40:00,74.9,63.2,27.14,NNE,23,0.9,2.7,67,0.00,,,0.00,WSDL version 420,2013-06-17 16:40:00,
2013-06-17 12:45:00,75.3,63.5,27.14,NNE,23,1.7,3.6,66,0.00,,,0.00,WSDL version 420,2013-06-17 16:45:00,
2013-06-17 12:50:00,75.8,63.7,27.14,NNE,23,0.5,4.3,66,0.00,,,0.00,WSDL version 420,2013-06-17 16:50:00,
2013-06-17 12:55:00,75.9,63.8,27.14,NNE,23,1.8,5.4,65,0.00,,,0.00,WSDL version 420,2013-06-17 16:55:00,
2013-06-17 13:00:00,75.9,63.3,27.14,NNE,23,0.9,5.4,65,0.00,,,0.00,WSDL version 420,2013-06-17 17:00:00,
2013-06-17 13:05:00,76.2,63.2,27.14,NNE,23,1.0,3.4,65,0.00,,,0.00,WSDL version 420,2013-06-17 17:05:00,
2013-06-17 13:10:00,77.5,65.2,27.14,NNE,23,0.9,2.9,66,0.00,,,0.00,WSDL version 420,2013-06-17 17:10:00,
2013-06-17 13:15:00,78.6,66.1,27.14,NNE,23,1.2,2.9,65,0.00,,,0.00,WSDL version 420,2013-06-17 17:15:00,
2013-06-17 13:20:00,79.4,65.7,27.14,NNE,23,1.6,3.4,62,0.00,,,0.00,WSDL version 420,2013-06-17 17:20:00,
2013-06-17 13:25:00,79.1,64.2,27.14,NNE,23,0.4,4.3,61,0.00,,,0.00,WSDL version 420,2013-06-17 17:25:00,
2013-06-17 13:30:00,78.9,63.7,27.14,NNE,23,2.4,5.6,58,0.00,,,0.00,WSDL version 420,2013-06-17 17:30:00,
2013-06-17 13:35:00,80.0,64.2,27.17,NNE,23,3.1,5.6,58,0.00,,,0.00,WSDL version 420,2013-06-17 17:35:00,
2013-06-17 13:40:00,80.6,63.5,27.17,NNE,23,0.7,4.9,56,0.00,,,0.00,WSDL version 420,2013-06-17 17:40:00,
2013-06-17 13:45:00,80.2,61.7,27.17,NNE,23,3.1,6.5,52,0.00,,,0.00,WSDL version 420,2013-06-17 17:45:00,
2013-06-17 13:50:00,79.6,61.6,27.17,NNE,23,1.5,6.5,55,0.00,,,0.00,WSDL version 420,2013-06-17 17:50:00,
2013-06-17 13:55:00,80.0,61.5,27.17,NNE,23,1.4,6.0,55,0.00,,,0.00,WSDL version 420,2013-06-17 17:55:00,
2013-06-17 14:00:00,79.4,60.9,27.17,NNE,23,0.3,6.0,53,0.00,,,0.00,WSDL version 420,2013-06-17 18:00:00,
2013-06-17 14:05:00,78.6,59.9,27.14,NNE,23,1.9,4.9,54,0.00,,,0.00,WSDL version 420,2013-06-17 18:05:00,
2013-06-17 14:10:00,78.0,60.5,27.14,NNE,23,0.5,4.9,56,0.00,,,0.00,WSDL version 420,2013-06-17 18:10:00,
2013-06-17 14:15:00,78.1,60.9,27.14,NNE,23,2.8,4.7,56,0.00,,,0.00,WSDL version 420,2013-06-17 18:15:00,
2013-06-17 14:20:00,77.9,60.5,27.14,NNE,23,2.4,5.8,56,0.00,,,0.00,WSDL version 420,2013-06-17 18:20:00,
2013-06-17 14:25:00,78.6,61.5,27.14,NNE,23,1.1,5.8,55,0.00,,,0.00,WSDL version 420,2013-06-17 18:25:00,
2013-06-17 14:30:00,79.4,62.3,27.14,NNE,23,0.6,5.6,54,0.00,,,0.00,WSDL version 420,2013-06-17 18:30:00,
2013-06-17 14:35:00,79.4,61.9,27.14,NNE,23,0.3,3.8,57,0.00,,,0.00,WSDL version 420,2013-06-17 18:35:00,
2013-06-17 14:40:00,79.4,61.0,27.14,NNE,23,0.2,2.7,54,0.00,,,0.00,WSDL version 420,2013-06-17 18:40:00,
2013-06-17 14:45:00,79.0,61.1,27.14,NNE,23,2.0,5.8,52,0.00,,,0.00,WSDL version 420,2013-06-17 18:45:00,
2013-06-17 14:50:00,78.4,59.6,27.14,NNE,23,1.5,5.8,52,0.00,,,0.00,WSDL version 420,2013-06-17 18:50:00,
2013-06-17 14:55:00,78.2,59.8,27.14,NNE,23,1.8,3.8,55,0.00,,,0.00,WSDL version 420,2013-06-17 18:55:00,
2013-06-17 15:00:00,78.7,60.7,27.14,NNE,23,2.4,5.8,53,0.00,,,0.00,WSDL version 420,2013-06-17 19:00:00,
2013-06-17 15:05:00,79.7,61.1,27.11,NNE,23,0.3,5.8,54,0.00,,,0.00,WSDL version 420,2013-06-17 19:05:00,
2013-06-17 15:10:00,79.7,61.2,27.11,NNE,23,1.2,3.6,52,0.00,,,0.00,WSDL version 420,2013-06-17 19:10:00,
2013-06-17 15:15:00,78.3,59.2,27.11,NNE,23,2.3,4.9,52,0.00,,,0.00,WSDL version 420,2013-06-17 19:15:00,
2013-06-17 15:20:00,77.1,58.8,27.11,NNE,23,1.5,4.9,54,0.00,,,0.00,WSDL version 420,2013-06-17 19:20:00,
2013-06-17 15:25:00,76.0,58.6,27.11,NNE,23,2.7,4.7,56,0.00,,,0.00,WSDL version 420,2013-06-17 19:25:00,
2013-06-17 15:30:00,75.1,59.3,27.11,NNE,23,0.4,3.6,60,0.00,,,0.00,WSDL version 420,2013-06-17 19:30:00,
2013-06-17 15:35:00,74.2,59.0,27.11,NNE,23,0.0,3.4,60,0.00,,,0.00,WSDL version 420,2013-06-17 19:35:00,
2013-06-17 15:40:00,73.4,59.6,27.11,NNE,23,0.0,3.4,63,0.00,,,0.00,WSDL version 420,2013-06-17 19:40:00,
2013-06-17 15:45:00,73.5,60.5,27.11,NNE,23,0.0,1.6,64,0.00,,,0.00,WSDL version 420,2013-06-17 19:45:00,
2013-06-17 15:50:00,73.9,61.2,27.11,NNE,23,0.0,2.5,66,0.00,,,0.00,WSDL version 420,2013-06-17 19:50:00,
2013-06-17 15:55:00,73.8,60.8,27.11,NNE,23,0.0,2.5,64,0.00,,,0.00,WSDL version 420,2013-06-17 19:55:00,
2013-06-17 16:00:00,73.9,61.5,27.11,NNE,23,0.0,0.0,66,0.00,,,0.00,WSDL version 420,2013-06-17 20:00:00,
2013-06-17 16:05:00,74.5,62.0,27.11,NNE,23,0.4,2.5,65,0.00,,,0.00,WSDL version 420,2013-06-17 20:05:00,
2013-06-17 16:10:00,75.4,61.6,27.11,NNE,23,0.0,3.4,61,0.00,,,0.00,WSDL version 420,2013-06-17 20:10:00,
2013-06-17 16:15:00,74.9,61.0,27.11,NNE,23,0.0,3.4,63,0.00,,,0.00,WSDL version 420,2013-06-17 20:15:00,
2013-06-17 16:20:00,74.6,61.5,27.11,NNE,23,0.2,2.0,64,0.00,,,0.00,WSDL version 420,2013-06-17 20:20:00,
2013-06-17 16:25:00,74.4,60.7,27.11,NNE,23,0.0,2.0,62,0.00,,,0.00,WSDL version 420,2013-06-17 20:25:00,
2013-06-17 16:30:00,74.3,61.1,27.11,NNE,23,0.3,1.6,65,0.00,,,0.00,WSDL version 420,2013-06-17 20:30:00,
2013-06-17 16:35:00,74.5,61.1,27.11,NNE,23,0.0,1.6,63,0.00,,,0.00,WSDL version 420,2013-06-17 20:35:00,
2013-06-17 16:40:00,74.9,62.0,27.11,NNE,23,0.0,0.0,65,0.00,,,0.00,WSDL version 420,2013-06-17 20:40:00,
2013-06-17 16:45:00,75.1,62.1,27.11,NNE,23,0.0,0.0,64,0.00,,,0.00,WSDL version 420,2013-06-17 20:45:00,
2013-06-17 16:50:00,75.3,61.9,27.11,NNE,23,0.0,0.0,63,0.00,,,0.00,WSDL version 420,2013-06-17 20:50:00,
2013-06-17 16:55:00,75.8,62.4,27.11,NNE,23,0.0,0.0,64,0.00,,,0.00,WSDL version 420,2013-06-17 20:55:00,
2013-06-17 17:00:00,77.0,63.4,27.11,NNE,23,0.0,0.0,62,0.00,,,0.00,WSDL version 420,2013-06-17 21:00:00,
2013-06-17 17:05:00,76.9,62.4,27.11,NNE,23,0.0,0.0,61,0.00,,,0.00,WSDL version 420,2013-06-17 21:05:00,
2013-06-17 17:10:00,76.6,62.3,27.11,NNE,23,0.0,0.0,62,0.00,,,0.00,WSDL version 420,2013-06-17 21:10:00,
2013-06-17 17:15:00,76.1,62.1,27.11,NNE,23,0.0,0.9,63,0.00,,,0.00,WSDL version 420,2013-06-17 21:15:00,
2013-06-17 17:20:00,75.8,61.9,27.11,NNE,23,0.0,2.2,61,0.00,,,0.00,WSDL version 420,2013-06-17 21:20:00,
2013-06-17 17:25:00,76.2,61.8,27.11,NNE,23,0.0,2.2,61,0.00,,,0.00,WSDL version 420,2013-06-17 21:25:00,
2013-06-17 17:30:00,76.7,62.6,27.11,NNE,23,0.0,1.1,62,0.00,,,0.00,WSDL version 420,2013-06-17 21:30:00,
2013-06-17 17:35:00,77.1,62.5,27.11,NNE,23,1.0,2.7,60,0.00,,,0.00,WSDL version 420,2013-06-17 21:35:00,
2013-06-17 17:40:00,77.5,62.3,27.11,NNE,23,0.6,2.9,58,0.00,,,0.00,WSDL version 420,2013-06-17 21:40:00,
2013-06-17 17:45:00,77.6,62.1,27.11,NNE,23,0.6,3.1,59,0.00,,,0.00,WSDL version 420,2013-06-17 21:45:00,
2013-06-17 17:50:00,77.6,62.2,27.11,NNE,23,0.0,3.1,58,0.00,,,0.00,WSDL version 420,2013-06-17 21:50:00,
2013-06-17 17:55:00,76.9,61.5,27.11,NNE,23,0.0,2.0,60,0.00,,,0.00,WSDL version 420,2013-06-17 21:55:00,
2013-06-17 18:00:00,75.9,61.2,27.11,NNE,23,0.0,2.0,61,0.00,,,0.00,WSDL version 420,2013-06-17 22:00:00,
2013-06-17 18:05:00,75.2,61.2,27.11,NNE,23,0.0,0.0,63,0.00,,,0.00,WSDL version 420,2013-06-17 22:05:00,
2013-06-17 18:10:00,74.9,61.1,27.11,NNE,23,0.4,2.0,64,0.00,,,0.00,WSDL version 420,2013-06-17 22:10:00,
2013-06-17 18:15:00,74.5,61.3,27.11,NNE,23,0.0,2.0,63,0.00,,,0.00,WSDL version 420,2013-06-17 22:15:00,
2013-06-17 18:20:00,74.5,61.0,27.11,NNE,23,0.0,0.0,63,0.00,,,0.00,WSDL version 420,2013-06-17 22:20:00,
2013-06-17 18:25:00,74.4,61.1,27.11,NNE,23,0.0,1.6,63,0.00,,,0.00,WSDL version 420,2013-06-17 22:25:00,
2013-06-17 18:30:00,74.3,61.3,27.11,NNE,23,0.0,1.6,64,0.00,,,0.00,WSDL version 420,2013-06-17 22:30:00,
2013-06-17 18:35:00,74.4,61.2,27.11,NNE,23,0.0,0.9,63,0.00,,,0.00,WSDL version 420,2013-06-17 22:35:00,
2013-06-17 18:40:00,74.6,61.5,27.11,NNE,23,0.0,0.0,63,0.00,,,0.00,WSDL version 420,2013-06-17 22:40:00,
2013-06-17 18:45:00,74.7,61.5,27.11,NNE,23,0.0,0.0,63,0.00,,,0.00,WSDL version 420,2013-06-17 22:45:00,
2013-06-17 18:50:00,74.8,61.3,27.08,NNE,23,0.0,0.0,63,0.00,,,0.00,WSDL version 420,2013-06-17 22:50:00,
2013-06-17 18:55:00,74.7,61.9,27.08,NNE,23,0.0,0.0,65,0.00,,,0.00,WSDL version 420,2013-06-17 22:55:00,
2013-06-17 19:00:00,74.6,61.8,27.08,NNE,23,0.0,0.9,64,0.00,,,0.00,WSDL version 420,2013-06-17 23:00:00,
2013-06-17 19:05:00,74.3,61.3,27.08,NNE,23,0.0,1.3,64,0.00,,,0.00,WSDL version 420,2013-06-17 23:05:00,
2013-06-17 19:10:00,73.9,61.0,27.08,NNE,23,0.0,1.3,64,0.00,,,0.00,WSDL version 420,2013-06-17 23:10:00,
2013-06-17 19:15:00,73.4,60.6,27.08,NNE,23,0.0,0.0,65,0.00,,,0.00,WSDL version 420,2013-06-17 23:15:00,
2013-06-17 19:20:00,72.9,61.2,27.11,NNE,23,0.0,0.0,67,0.00,,,0.00,WSDL version 420,2013-06-17 23:20:00,
2013-06-17 19:25:00,72.5,61.3,27.11,NNE,23,0.0,0.0,68,0.00,,,0.00,WSDL version 420,2013-06-17 23:25:00,
2013-06-17 19:30:00,72.2,61.1,27.11,NNE,23,0.0,0.0,68,0.00,,,0.00,WSDL version 420,2013-06-17 23:30:00,
2013-06-17 19:35:00,71.9,60.7,27.08,NNE,23,0.0,0.0,68,0.00,,,0.00,WSDL version 420,2013-06-17 23:35:00,
2013-06-17 19:40:00,71.6,60.8,27.08,NNE,23,0.0,0.0,70,0.00,,,0.00,WSDL version 420,2013-06-17 23:40:00,
2013-06-17 19:45:00,71.5,61.2,27.08,NNE,23,0.0,0.0,70,0.00,,,0.00,WSDL version 420,2013-06-17 23:45:00,
2013-06-17 19:50:00,71.3,61.3,27.11,NNE,23,0.0,0.0,71,0.00,,,0.00,WSDL version 420,2013-06-17 23:50:00,
2013-06-17 19:55:00,71.1,61.2,27.11,NNE,23,0.0,0.0,71,0.00,,,0.00,WSDL version 420,2013-06-17 23:55:00,
2013-06-17 20:00:00,71.0,61.1,27.11,NNE,23,0.0,0.0,71,0.00,,,0.00,WSDL version 420,2013-06-18 00:00:00,
2013-06-17 20:05:00,71.0,61.2,27.11,NNE,23,0.0,0.0,72,0.00,,,0.00,WSDL version 420,2013-06-18 00:05:00,
2013-06-17 20:10:00,70.7,61.6,27.11,NNE,23,0.0,0.0,74,0.00,,,0.00,WSDL version 420,2013-06-18 00:10:00,
2013-06-17 20:15:00,70.4,61.8,27.11,NNE,23,0.0,0.0,75,0.00,,,0.00,WSDL version 420,2013-06-18 00:15:00,
2013-06-17 20:20:00,70.2,62.4,27.11,NNE,23,0.0,0.0,77,0.00,,,0.00,WSDL version 420,2013-06-18 00:20:00,
2013-06-17 20:25:00,70.1,62.8,27.11,NNE,23,1.0,1.6,79,0.00,,,0.00,WSDL version 420,2013-06-18 00:25:00,
2013-06-17 20:30:00,69.9,62.8,27.11,NNE,23,0.0,1.6,78,0.04,,,0.04,WSDL version 420,2013-06-18 00:30:00,
2013-06-17 20:35:00,69.7,62.9,27.11,NNE,23,0.0,1.1,80,0.04,,,0.04,WSDL version 420,2013-06-18 00:35:00,
2013-06-17 20:40:00,69.5,63.4,27.11,NNE,23,0.0,1.1,81,0.04,,,0.04,WSDL version 420,2013-06-18 00:40:00,
2013-06-17 20:45:00,69.4,63.2,27.11,NNE,23,0.0,0.0,81,0.04,,,0.04,WSDL version 420,2013-06-18 00:45:00,
2013-06-17 20:50:00,69.3,63.3,27.11,NNE,23,0.0,0.0,82,0.04,,,0.04,WSDL version 420,2013-06-18 00:50:00,
2013-06-17 20:55:00,69.2,63.5,27.11,NNE,23,0.0,0.0,82,0.04,,,0.04,WSDL version 420,2013-06-18 00:55:00,
2013-06-17 21:00:00,69.0,63.4,27.11,NNE,23,0.0,0.0,82,0.04,,,0.04,WSDL version 420,2013-06-18 01:00:00,
2013-06-17 21:05:00,69.0,63.4,27.11,NNE,23,0.0,0.0,82,0.04,,,0.04,WSDL version 420,2013-06-18 01:05:00,
2013-06-17 21:10:00,69.0,63.3,27.11,NNE,23,0.0,0.0,82,0.04,,,0.04,WSDL version 420,2013-06-18 01:10:00,
2013-06-17 21:15:00,68.8,63.2,27.11,NNE,23,0.0,0.0,82,0.04,,,0.04,WSDL version 420,2013-06-18 01:15:00,
2013-06-17 21:20:00,68.8,63.3,27.11,NNE,23,0.0,0.0,83,0.04,,,0.04,WSDL version 420,2013-06-18 01:20:00,
2013-06-17 21:25:00,68.6,63.3,27.11,NNE,23,0.0,0.0,83,0.04,,,0.04,WSDL version 420,2013-06-18 01:25:00,
2013-06-17 21:30:00,68.4,63.4,27.11,NNE,23,0.0,0.0,84,0.00,,,0.04,WSDL version 420,2013-06-18 01:30:00,
2013-06-17 21:35:00,68.2,63.4,27.11,NNE,23,0.0,0.0,84,0.00,,,0.04,WSDL version 420,2013-06-18 01:35:00,
2013-06-17 21:40:00,68.1,63.2,27.11,NNE,23,0.0,0.0,84,0.00,,,0.04,WSDL version 420,2013-06-18 01:40:00,
2013-06-17 21:45:00,67.9,63.1,27.11,NNE,23,0.0,0.0,84,0.00,,,0.04,WSDL version 420,2013-06-18 01:45:00,
2013-06-17 21:50:00,67.9,63.0,27.08,NNE,23,0.0,0.0,84,0.00,,,0.04,WSDL version 420,2013-06-18 01:50:00,
2013-06-17 21:55:00,67.8,63.1,27.08,NNE,23,0.0,0.0,86,0.00,,,0.04,WSDL version 420,2013-06-18 01:55:00,
2013-06-17 22:00:00,67.6,63.1,27.08,NNE,23,0.0,0.0,86,0.00,,,0.04,WSDL version 420,2013-06-18 02:00:00,
2013-06-17 22:05:00,67.4,62.8,27.11,NNE,23,0.0,0.0,86,0.00,,,0.04,WSDL version 420,2013-06-18 02:05:00,
2013-06-17 22:10:00,67.2,62.8,27.11,NNE,23,0.0,0.0,86,0.00,,,0.04,WSDL version 420,2013-06-18 02:10:00,
2013-06-17 22:15:00,67.2,63.1,27.11,NNE,23,0.0,0.0,87,0.00,,,0.04,WSDL version 420,2013-06-18 02:15:00,
2013-06-17 22:20:00,67.2,63.1,27.11,NNE,23,0.0,0.0,87,0.00,,,0.04,WSDL version 420,2013-06-18 02:20:00,
2013-06-17 22:25:00,67.2,63.0,27.11,NNE,23,0.0,0.0,86,0.00,,,0.04,WSDL version 420,2013-06-18 02:25:00,
2013-06-17 22:30:00,67.2,62.8,27.11,NNE,23,0.0,0.0,87,0.00,,,0.04,WSDL version 420,2013-06-18 02:30:00,
2013-06-17 22:35:00,67.0,62.9,27.14,NNE,23,0.0,0.0,87,0.00,,,0.04,WSDL version 420,2013-06-18 02:35:00,
2013-06-17 22:40:00,67.0,62.9,27.14,NNE,23,0.0,0.0,87,0.00,,,0.04,WSDL version 420,2013-06-18 02:40:00,
2013-06-17 22:45:00,67.2,63.1,27.14,NNE,23,0.0,0.0,87,0.00,,,0.04,WSDL version 420,2013-06-18 02:45:00,
2013-06-17 22:50:00,67.1,63.0,27.11,NNE,23,0.0,0.0,87,0.00,,,0.04,WSDL version 420,2013-06-18 02:50:00,
2013-06-17 22:55:00,67.2,63.1,27.11,NNE,23,0.0,0.0,87,0.00,,,0.04,WSDL version 420,2013-06-18 02:55:00,
2013-06-17 23:00:00,67.1,63.2,27.11,NNE,23,0.0,0.0,87,0.00,,,0.04,WSDL version 420,2013-06-18 03:00:00,
2013-06-17 23:05:00,67.0,62.9,27.11,NNE,23,0.0,0.0,87,0.00,,,0.04,WSDL version 420,2013-06-18 03:05:00,
2013-06-17 23:10:00,67.0,63.2,27.11,NNE,23,0.0,0.0,88,0.00,,,0.04,WSDL version 420,2013-06-18 03:10:00,
2013-06-17 23:15:00,67.0,63.3,27.11,NNE,23,0.0,0.0,88,0.00,,,0.04,WSDL version 420,2013-06-18 03:15:00,
2013-06-17 23:20:00,67.0,63.3,27.11,NNE,23,0.0,0.0,88,0.00,,,0.04,WSDL version 420,2013-06-18 03:20:00,
2013-06-17 23:25:00,67.0,63.3,27.11,NNE,23,0.0,0.0,88,0.00,,,0.04,WSDL version 420,2013-06-18 03:25:00,
2013-06-17 23:30:00,67.0,63.4,27.11,NNE,23,0.0,0.0,89,0.00,,,0.04,WSDL version 420,2013-06-18 03:30:00,
2013-06-17 23:35:00,67.1,63.7,27.11,NNE,23,0.0,0.0,89,0.00,,,0.04,WSDL version 420,2013-06-18 03:35:00,
2013-06-17 23:40:00,67.0,63.6,27.11,NNE,23,0.0,0.0,88,0.00,,,0.04,WSDL version 420,2013-06-18 03:40:00,
2013-06-17 23:45:00,67.0,63.6,27.11,NNE,23,0.0,0.0,89,0.00,,,0.04,WSDL version 420,2013-06-18 03:45:00,
2013-06-17 23:50:00,67.0,63.6,27.08,NNE,23,0.0,0.0,89,0.00,,,0.04,WSDL version 420,2013-06-18 03:50:00,
2013-06-17 23:55:00,67.0,63.6,27.08,NNE,23,0.0,0.0,89,0.00,,,0.04,WSDL version 420,2013-06-18 03:55:00,